Flag for Spain Weather past 2 weeks in Almería, Spain

Now
64 °F

Mild.


Feels Like: 64 °F
Forecast: 61 / 83 °F
Wind: 1 mph from Southeast

Location: Almeria / Aeropuerto

Current Time: May 30, 2015 at 3:06:15 AM

Latest Report: May 30, 2015 at 2:00 AM


Visibility: N/A

Pressure: 29.99 "Hg

Humidity: 83%

Dew point: 59 °F

Location of AlmeríaLocation

Historic Weather in Almería — Graph

°F

Almería temperature yesterday

Maximum temperature yesterday: 78 °F (at 1:00 PM)
Minimum temperature yesterday: 68 °F (at 10:00 PM)
Average temperature yesterday: 73 °F

Past Weeks' High & Low Weather Summary

 TemperatureHumidityPressure
High87 °F (May 18, 3:00 PM)87% (May 27, 7:00 AM)30.26 "Hg (May 27, 7:00 AM)
Low61 °F (May 26, 3:00 AM)17% (May 28, 7:00 PM)29.72 "Hg (May 19, 5:00 PM)
Average72 °F55%30.02 "Hg
* Reported May 15 1:00 AM — May 30 1:00 AM, Almería, Weather by CustomWeather, © 2015

Note: Actual official high and low records may vary slightly from our data, if they occured in-between our weather recording intervals... More about our weather records

Advertising

Almería weather history for previous 24 hours

 ConditionsComfort  
Time TempWeatherWind HumidityBarometerVisibility
1:00 AM
Sat, May 30
66 °FMild.2 mph82%29.99 "HgN/A
12:00 AM67 °FMild.6 mph81%29.99 "HgN/A
10:00 PM
Fri, May 29
68 °FMild.7 mph78%29.97 "HgN/A
9:00 PM69 °FMild.13 mph75%29.96 "HgN/A
8:00 PM69 °FScattered clouds.15 mph77%29.94 "Hg31 mi
7:00 PM73 °FMild.17 mph67%29.93 "HgN/A
6:00 PM74 °FMild.17 mph63%29.93 "HgN/A
5:00 PM76 °FScattered clouds.17 mph64%29.92 "Hg31 mi
4:00 PM76 °FMild.15 mph61%29.93 "HgN/A
3:00 PM76 °FMild.12 mph60%29.93 "HgN/A
2:00 PM77 °FMild.12 mph52%29.92 "HgN/A
1:00 PM78 °FPleasantly warm.7 mph35%29.93 "HgN/A
12:00 PM78 °FPleasantly warm.5 mph30%29.93 "HgN/A
11:00 AM73 °FOvercast.5 mph43%29.93 "Hg25 mi
10:00 AM74 °FMild.3 mph40%29.93 "HgN/A
9:00 AM74 °FMild.2 mph27%29.93 "HgN/A
8:00 AM70 °FPartly sunny.8 mph30%29.92 "Hg31 mi
7:00 AM70 °FMild.5 mph28%29.90 "HgN/A
6:00 AM73 °FMild.12 mph21%29.87 "HgN/A
5:00 AM73 °FOvercast.16 mph25%29.89 "Hg31 mi
4:00 AM71 °FMild.10 mph32%29.91 "HgN/A
3:00 AM70 °FMild.6 mph32%29.97 "HgN/A
Weather by CustomWeather, © 2015

See weather overviewHow to use our weather pages